Le nostre stazioni meteo in Italia

Pubblicità
Il mio iltempo24.it
Capel Curig, Gran Bretagna (3305): Temperatura & dewpoint: 08.11.2019 08:00:00 - 14.11.2019 08:00:00 (GMT)Capel Curig, Gran Bretagna (3305): Temperatura -20cm & Temperatura -100cm: 08.11.2019 08:00:00 - 14.11.2019 08:00:00 (GMT)Capel Curig, Gran Bretagna (3305): velocità del vento & gusts: 08.11.2019 08:00:00 - 14.11.2019 08:00:00 (GMT)Capel Curig, Gran Bretagna (3305): direzione del vento: 08.11.2019 08:00:00 - 14.11.2019 08:00:00 (GMT)Capel Curig, Gran Bretagna (3305): reduced air pressure: 08.11.2019 08:00:00 - 14.11.2019 08:00:00 (GMT)Capel Curig, Gran Bretagna (3305): visibility: 08.11.2019 08:00:00 - 14.11.2019 08:00:00 (GMT)Capel Curig, Gran Bretagna (3305): precipitazioni: 08.11.2019 08:00:00 - 14.11.2019 08:00:00 (GMT)
Data & Tempo tt [°C] td [°C] tt -20cm [°C] tt -100cm [°C] ff [km/h] ff [kn] fx [km/h] fx [kn] dd ppp [hPa] vv [km] rr [mm]
14.11.2019 08:00:00 5,0 2,5 - - 48 26 70 38 NE 999,4 50 0,0
14.11.2019 07:00:00 5,1 2,6 - - 48 26 67 36 NE 998,3 40 0,0
14.11.2019 06:00:00 4,8 2,4 - - 44 24 65 35 NE 997,1 40 0,0
14.11.2019 05:00:00 4,6 2,0 - - 42 23 59 32 NE 995,9 28 0,0
14.11.2019 04:00:00 4,2 1,9 - - 37 20 57 31 NE 994,9 24 0,0
14.11.2019 03:00:00 3,9 1,9 - - 39 21 54 29 ENE 993,7 19 0,0
14.11.2019 02:00:00 4,0 1,4 - - 35 19 65 35 ENE 992,6 28 0,0
14.11.2019 01:00:00 4,2 0,9 - - 54 29 74 40 NE 991,2 30 0,0
14.11.2019 00:00:00 4,0 1,5 - - 44 24 61 33 NE 990,5 29 0,0
13.11.2019 23:00:00 3,9 1,9 - - 29 16 46 25 NE 990,2 24 0,0
13.11.2019 22:00:00 4,4 1,9 - - 34 18 46 25 ENE 989,8 35 0,0
13.11.2019 21:00:00 4,5 2,0 - - 24 13 - - ENE 989,8 35 0,0
13.11.2019 20:00:00 4,4 2,1 - - 22 12 - - NE 989,7 30 0,0
13.11.2019 19:00:00 4,5 1,8 - - 11 6 - - N 989,9 45 0,0
13.11.2019 18:00:00 5,1 1,4 - - 9 5 - - SE 990,4 55 0,0
13.11.2019 17:00:00 4,9 1,6 - - 11 6 - - NE 991,1 50 0,0
13.11.2019 16:00:00 5,3 2,0 - - 15 8 - - NE 991,5 45 0,0
13.11.2019 15:00:00 5,6 2,0 - - 15 8 - - ENE 992,7 55 0,0
13.11.2019 14:00:00 6,4 1,7 - - 11 6 - - S 994,1 50 0,0
13.11.2019 13:00:00 6,2 2,6 - - 16 9 - - SSO 995,4 45 0,0
13.11.2019 12:00:00 5,8 3,0 - - 15 8 - - O 996,4 40 0,0
13.11.2019 11:00:00 5,6 2,1 - - 21 11 - - SO 997,8 40 0,0
13.11.2019 10:00:00 5,3 2,6 - - 18 10 - - SO 998,8 35 0,0
13.11.2019 09:00:00 4,3 2,8 7,2 8,7 11 6 - - O 999,9 35 0,0
13.11.2019 08:00:00 4,2 2,6 - - 13 7 - - O 1000,6 35 0,2
13.11.2019 07:00:00 4,7 3,1 - - 21 11 - - OSO 1000,8 45 0,2
13.11.2019 06:00:00 4,8 2,9 - - 21 11 - - OSO 1001,4 50 0,0
13.11.2019 05:00:00 4,5 2,4 - - 24 13 - - SO 1001,6 70 0,0
13.11.2019 04:00:00 4,9 3,3 - - 16 9 - - OSO 1001,9 45 0,0
13.11.2019 03:00:00 6,0 2,6 - - 16 9 - - O 1002,0 50 0,4
13.11.2019 02:00:00 6,4 2,7 - - 24 13 48 26 O 1002,2 14 0,0
13.11.2019 01:00:00 6,4 2,2 - - 21 11 67 36 O 1002,5 45 0,0
13.11.2019 00:00:00 6,6 2,3 - - 28 15 59 32 O 1002,5 45 0,0
12.11.2019 23:00:00 6,8 2,6 - - 18 10 54 29 O 1002,7 45 0,0
12.11.2019 22:00:00 7,1 3,0 - - 21 11 55 30 O 1002,8 45 0,2
12.11.2019 21:00:00 7,1 3,5 - - 21 11 68 37 O 1002,5 35 0,8
12.11.2019 20:00:00 7,4 3,8 - - 21 11 59 32 O 1002,0 2,1 0,2
12.11.2019 19:00:00 7,6 3,9 - - 24 13 83 45 O 1001,3 35 0,0
12.11.2019 18:00:00 7,4 4,3 - - 9 5 54 29 SSO 1001,0 12 0,2
12.11.2019 17:00:00 7,7 4,7 - - 15 8 67 36 O 1000,2 30 0,0
12.11.2019 16:00:00 7,5 5,1 - - 31 17 55 30 O 999,5 9 0,8
12.11.2019 15:00:00 7,9 5,0 - - 11 6 57 31 ENE 998,3 8 3,0
12.11.2019 14:00:00 8,0 4,5 - - 22 12 61 33 NNO 997,9 28 3,2
12.11.2019 13:00:00 7,8 4,5 - - 35 19 65 35 NO 996,9 11 2,0
12.11.2019 12:00:00 7,6 4,7 - - 28 15 76 41 NO 996,4 19 3,2
12.11.2019 11:00:00 7,0 5,1 - - 24 13 106 57 NNO 995,5 5 3,6
12.11.2019 10:00:00 5,3 4,0 - - 37 20 74 40 O 995,3 1,9 5,0
12.11.2019 09:00:00 4,5 2,8 7,4 9,0 41 22 70 38 O 996,0 3,4 2,2
12.11.2019 08:00:00 5,0 3,5 - - 46 25 83 45 O 996,1 3,1 5,2
12.11.2019 07:00:00 4,7 2,8 - - 57 31 87 47 OSO 996,0 2,9 1,6
12.11.2019 06:00:00 5,6 1,3 - - 54 29 85 46 O 996,7 27 0,0
12.11.2019 05:00:00 5,1 1,8 - - 46 25 72 39 OSO 997,8 26 0,0
12.11.2019 04:00:00 5,1 1,5 - - 39 21 67 36 O 998,3 30 0,0
12.11.2019 03:00:00 5,0 1,6 - - 44 24 83 45 OSO 998,8 30 0,0
12.11.2019 02:00:00 5,1 1,4 - - 42 23 63 34 O 999,1 30 0,0
12.11.2019 01:00:00 4,9 1,4 - - 29 16 70 38 O 999,6 35 0,0
12.11.2019 00:00:00 5,1 1,2 - - 37 20 70 38 O 999,5 30 0,0
11.11.2019 23:00:00 5,3 1,1 - - 42 23 85 46 O 999,4 35 0,0
11.11.2019 22:00:00 5,3 1,5 - - 39 21 76 41 O 999,8 35 0,0
11.11.2019 21:00:00 5,4 1,9 - - 35 19 68 37 O 1000,0 35 0,0
11.11.2019 20:00:00 5,7 1,5 - - 42 23 70 38 O 1000,2 35 0,0
11.11.2019 19:00:00 5,5 1,2 - - 41 22 67 36 O 1000,1 35 3,2
11.11.2019 18:00:00 4,8 2,2 - - 31 17 74 40 O 1000,6 2,8 1,6
11.11.2019 17:00:00 5,9 1,6 - - 44 24 72 39 O 1000,1 35 0,4
11.11.2019 16:00:00 5,7 2,9 - - 42 23 67 36 O 1000,6 15 0,6
11.11.2019 15:00:00 5,9 2,7 - - 41 22 67 36 O 1000,6 3,5 0,6
11.11.2019 14:00:00 5,6 3,2 - - 42 23 67 36 OSO 1001,0 7 0,0
11.11.2019 13:00:00 6,4 3,3 - - 46 25 74 40 O 1001,4 35 0,2
11.11.2019 12:00:00 6,3 3,1 - - 39 21 65 35 O 1001,6 35 0,4
11.11.2019 11:00:00 5,8 3,4 - - 37 20 63 34 OSO 1001,7 14 0,0
11.11.2019 10:00:00 6,0 2,7 - - 29 16 65 35 O 1002,1 26 0,0
11.11.2019 09:00:00 6,1 2,5 7,7 8,9 34 18 68 37 O 1002,0 24 0,0
11.11.2019 08:00:00 5,9 2,7 - - 31 17 70 38 O 1001,7 26 0,0
11.11.2019 07:00:00 5,7 3,2 - - 37 20 59 32 O 1001,4 27 0,2
11.11.2019 06:00:00 5,6 3,2 - - 29 16 67 36 O 1001,3 30 1,4
11.11.2019 05:00:00 5,9 3,4 - - 35 19 68 37 O 1000,5 4,4 0,0
11.11.2019 04:00:00 6,1 3,5 - - 29 16 57 31 O 1000,7 26 0,2
11.11.2019 03:00:00 6,0 3,9 - - 24 13 - - O 1000,5 18 2,0
11.11.2019 02:00:00 5,4 3,5 - - 28 15 76 41 O 1000,8 4,1 4,4
11.11.2019 01:00:00 6,2 4,4 - - 57 31 78 42 SO 1000,7 4,0 2,4
11.11.2019 00:00:00 5,7 4,2 - - 55 30 87 47 SO 1002,8 2,9 3,6
10.11.2019 23:00:00 5,8 4,2 - - 57 31 76 41 SO 1003,8 2,9 0,6
10.11.2019 22:00:00 5,5 3,4 - - 48 26 72 39 SO 1006,1 5 2,0
10.11.2019 21:00:00 5,2 3,1 - - 39 21 57 31 SO 1008,5 4,3 3,0
10.11.2019 20:00:00 5,0 2,5 - - 26 14 - - OSO 1010,8 14 0,0
10.11.2019 19:00:00 3,7 1,5 - - 16 9 - - OSO 1011,9 75 0,0
10.11.2019 18:00:00 5,0 1,3 - - 18 10 - - SO 1010,8 75 0,0
10.11.2019 17:00:00 4,0 1,0 - - 9 5 - - OSO 1012,3 75 0,0
10.11.2019 16:00:00 4,0 0,9 - - 11 6 - - OSO 1013,6 75 0,0
10.11.2019 15:00:00 4,9 1,0 - - 8 4 - - SO 1014,9 75 0,0
10.11.2019 14:00:00 5,7 0,1 - - 5 3 - - S 1015,9 70 0,0
10.11.2019 13:00:00 5,1 -0,4 - - 4 2 - - ENE 1016,1 70 0,0
10.11.2019 12:00:00 5,6 -0,3 - - 8 4 - - E 1016,4 60 0,0
10.11.2019 11:00:00 5,0 0,5 - - 13 7 - - E 1016,8 75 0,0
10.11.2019 10:00:00 2,9 0,3 - - 15 8 - - E 1017,2 70 0,0
10.11.2019 09:00:00 1,4 0,1 7,7 9,4 11 6 - - NE 1017,0 60 0,0
10.11.2019 08:00:00 0,8 -0,4 - - 11 6 - - ENE 1016,7 55 0,0
10.11.2019 07:00:00 1,2 -0,1 - - 11 6 - - ENE 1015,6 60 0,0
10.11.2019 06:00:00 1,5 -0,6 - - 11 6 - - NE 1014,7 65 0,0
10.11.2019 05:00:00 1,7 0,2 - - 15 8 - - ENE 1014,0 70 0,0
10.11.2019 04:00:00 1,3 0,2 - - 15 8 - - NE 1013,4 65 0,0
10.11.2019 03:00:00 2,1 0,2 - - 21 11 - - E 1012,6 70 0,0
10.11.2019 02:00:00 2,3 1,4 - - 26 14 - - E 1011,6 35 0,0
10.11.2019 01:00:00 2,4 1,4 - - 34 18 52 28 NE 1010,8 40 0,4
10.11.2019 00:00:00 2,7 1,5 - - 34 18 87 47 NE 1009,4 23 0,0
09.11.2019 23:00:00 2,5 1,6 - - 28 15 - - ENE 1008,3 16 0,0
09.11.2019 22:00:00 2,6 1,5 - - 26 14 - - NE 1007,1 30 0,0
09.11.2019 21:00:00 2,7 1,5 - - 26 14 - - NE 1005,7 45 0,0
09.11.2019 20:00:00 2,7 1,9 - - 21 11 - - NE 1004,6 23 0,0
09.11.2019 19:00:00 2,7 2,2 - - 18 10 - - ENE 1003,8 11 0,0
09.11.2019 18:00:00 2,7 1,9 - - 15 8 - - NE 1002,9 7 0,0
09.11.2019 17:00:00 2,6 1,8 - - 15 8 - - ENE 1002,1 45 0,0
09.11.2019 16:00:00 2,9 1,8 - - 11 6 - - NNE 1001,6 70 0,0
09.11.2019 15:00:00 3,0 2,0 - - 16 9 - - NE 1001,2 55 0,0
09.11.2019 14:00:00 3,1 1,9 - - 15 8 - - E 1001,3 30 0,0
09.11.2019 13:00:00 3,2 2,2 - - 8 4 - - ENE 1001,5 8 0,0
09.11.2019 12:00:00 2,5 1,5 - - 16 9 - - ENE 1001,8 13 0,0
09.11.2019 11:00:00 1,8 0,8 - - 18 10 - - NNE 1002,4 26 0,0
09.11.2019 10:00:00 1,2 0,3 - - 18 10 - - ENE 1003,3 30 2,0
09.11.2019 09:00:00 2,8 0,8 8,5 9,5 24 13 54 29 SSE 1004,1 2,0 5,8
09.11.2019 08:00:00 1,2 -0,1 - - 8 4 - - ENE 1004,6 5 0,0
09.11.2019 07:00:00 -1,7 -2,0 - - 8 4 - - NE 1005,9 25 0,0
09.11.2019 06:00:00 -2,6 -2,9 - - 2 1 - - NO 1007,4 70 0,0
09.11.2019 05:00:00 -3,1 -3,5 - - 2 1 - - ENE 1008,4 55 0,0
09.11.2019 04:00:00 -2,8 -3,1 - - 5 3 - - ENE 1009,5 35 0,0
09.11.2019 03:00:00 -2,9 -3,3 - - 2 1 - - E 1010,9 40 0,0
09.11.2019 02:00:00 -2,9 -3,4 - - 4 2 - - E 1011,7 28 0,0
09.11.2019 01:00:00 -2,8 -3,5 - - 0 0 - - N 1013,1 65 0,0
09.11.2019 00:00:00 -2,3 -3,2 - - 2 1 - - ESE 1013,9 55 0,0
08.11.2019 23:00:00 -2,3 -3,2 - - 2 1 - - E 1013,9 75 0,0
08.11.2019 22:00:00 -2,1 -3,2 - - 5 3 - - OSO 1014,2 75 0,0
08.11.2019 21:00:00 -0,8 -1,7 - - 5 3 - - ENE 1014,5 2,3 0,0
08.11.2019 20:00:00 -0,8 -2,8 - - 4 2 - - OSO 1014,6 75 0,0
08.11.2019 19:00:00 -0,2 -2,6 - - 5 3 - - OSO 1014,9 75 0,0
08.11.2019 18:00:00 2,3 -1,9 - - 5 3 - - ENE 1014,5 75 0,0
08.11.2019 17:00:00 3,5 -1,9 - - 4 2 - - NE 1014,0 75 0,0
08.11.2019 16:00:00 5,6 -2,2 - - 8 4 - - NNE 1013,6 75 0,0
08.11.2019 15:00:00 6,6 -2,4 - - 5 3 - - NE 1012,8 75 0,0
08.11.2019 14:00:00 6,9 -1,4 - - 9 5 - - NE 1012,4 75 0,0
08.11.2019 13:00:00 6,8 -0,3 - - 21 11 48 26 ENE 1011,9 70 0,0
08.11.2019 12:00:00 6,4 0,9 - - 22 12 - - ENE 1011,9 60 0,0
08.11.2019 11:00:00 5,9 1,6 - - 22 12 - - NE 1012,1 50 0,0
08.11.2019 10:00:00 5,6 1,4 - - 28 15 - - NE 1011,7 60 0,0
08.11.2019 09:00:00 5,4 1,8 9,0 9,9 18 10 - - E 1011,1 60 0,0
08.11.2019 08:00:00 5,2 1,2 - - 18 10 - - ENE 1010,4 60 0,0

tt = Temperatura
td = dewpoint
tt -20cm = Temperatura -20cm
tt -100cm = Temperatura -100cm
ff = velocità del vento
fx = gusts
dd = direzione del vento
ppp = reduced air pressure
vv = visibility
rr = precipitazioni

Stazioni seguenti

WeatherPro
AMSI
MeteoEarth